Location: Kalberh�ni
(46.4610°N, 7.2453°E)
Time: 06:26:41
(UTC+00:00)

Cosmos 2333 Rocket - Pass Details

Date: 31 October 2021
Orbit: 837 x 865 km, 70.8° (Epoch: 05 December)

Event Time Altitude Azimuth Distance (km) Brightness Sun altitude
Exits shadow 03:53:50 24° 198° (SSW) 1,701 3.6 -24.1°
Drops below altitude 10° 03:56:17 10° 184° (S) 2,498 4.6 -23.7°
Sets 03:58:50 0° 177° (S) 3,430 5.4 -23.2°
